Time,TemperatureF,DewpointF,PressureIn,WindDirection,WindDirectionDegrees,WindSpeedMPH,WindSpeedGustMPH,Humidity,HourlyPrecipIn,Conditions,Clouds,dailyrainin,SoftwareType,DateUTC
2013-05-25 00:02:00,63.0,38.0,-100.00,North,0,3.0,10.0,40,-99.99,,,-99.99,,2013-05-25 04:02:00,
2013-05-25 00:13:00,63.0,39.0,-100.00,North,5,3.0,9.0,40,-99.99,,,-99.99,,2013-05-25 04:13:00,
2013-05-25 00:23:00,63.0,38.0,-100.00,North,0,1.0,8.0,40,-99.99,,,-99.99,,2013-05-25 04:23:00,
2013-05-25 00:33:00,63.0,39.0,-100.00,North,0,2.0,9.0,41,-99.99,,,-99.99,,2013-05-25 04:33:00,
2013-05-25 00:43:00,63.0,39.0,-100.00,North,5,3.0,7.0,41,-99.99,,,-99.99,,2013-05-25 04:43:00,
2013-05-25 00:52:00,62.0,39.0,-100.00,NNE,30,3.0,9.0,42,-99.99,,,-99.99,,2013-05-25 04:52:00,
2013-05-25 01:02:00,62.0,39.0,-100.00,North,0,4.0,7.0,42,-99.99,,,-99.99,,2013-05-25 05:02:00,
2013-05-25 01:12:00,62.0,39.0,-100.00,NNE,30,4.0,7.0,42,-99.99,,,-99.99,,2013-05-25 05:12:00,
2013-05-25 01:22:00,62.0,38.0,-100.00,NNE,20,2.0,10.0,42,-99.99,,,-99.99,,2013-05-25 05:22:00,
2013-05-25 01:32:00,61.0,38.0,-100.00,East,95,2.0,5.0,42,-99.99,,,-99.99,,2013-05-25 05:32:00,
2013-05-25 01:43:00,60.0,38.0,-100.00,ENE,70,1.0,4.0,43,-99.99,,,-99.99,,2013-05-25 05:43:00,
2013-05-25 01:52:00,60.0,38.0,-100.00,ENE,75,1.0,4.0,44,-99.99,,,-99.99,,2013-05-25 05:52:00,
2013-05-25 02:02:00,60.0,38.0,-100.00,ENE,75,1.0,4.0,44,-99.99,,,-99.99,,2013-05-25 06:02:00,
2013-05-25 02:12:00,60.0,38.0,-100.00,North,0,2.0,7.0,45,-99.99,,,-99.99,,2013-05-25 06:12:00,
2013-05-25 02:22:00,60.0,38.0,-100.00,North,0,1.0,9.0,44,-99.99,,,-99.99,,2013-05-25 06:22:00,
2013-05-25 02:32:00,59.0,38.0,-100.00,SSE,155,0.0,5.0,45,-99.99,,,-99.99,,2013-05-25 06:32:00,
2013-05-25 02:42:00,59.0,37.0,-100.00,NE,40,0.0,6.0,45,-99.99,,,-99.99,,2013-05-25 06:42:00,
2013-05-25 02:52:00,58.0,38.0,-100.00,North,355,1.0,2.0,46,-99.99,,,-99.99,,2013-05-25 06:52:00,
2013-05-25 03:01:00,58.0,37.0,-100.00,North,0,2.0,5.0,46,-99.99,,,-99.99,,2013-05-25 07:01:00,
2013-05-25 03:11:00,58.0,37.0,-100.00,North,0,4.0,6.0,46,-99.99,,,-99.99,,2013-05-25 07:11:00,
2013-05-25 03:22:00,59.0,38.0,-100.00,NE,55,2.0,9.0,46,-99.99,,,-99.99,,2013-05-25 07:22:00,
2013-05-25 03:32:00,58.0,37.0,-100.00,East,80,1.0,5.0,46,-99.99,,,-99.99,,2013-05-25 07:32:00,
2013-05-25 03:42:00,58.0,37.0,-100.00,East,80,1.0,5.0,46,-99.99,,,-99.99,,2013-05-25 07:42:00,
2013-05-25 03:52:00,58.0,38.0,-100.00,North,0,1.0,6.0,46,-99.99,,,-99.99,,2013-05-25 07:52:00,
2013-05-25 04:02:00,59.0,38.0,-100.00,North,0,4.0,9.0,46,-99.99,,,-99.99,,2013-05-25 08:02:00,
2013-05-25 04:11:00,59.0,38.0,-100.00,North,0,5.0,9.0,46,-99.99,,,-99.99,,2013-05-25 08:11:00,
2013-05-25 04:23:00,59.0,38.0,-100.00,NE,40,3.0,9.0,46,-99.99,,,-99.99,,2013-05-25 08:23:00,
2013-05-25 04:32:00,58.0,38.0,-100.00,NNE,25,2.0,9.0,46,-99.99,,,-99.99,,2013-05-25 08:32:00,
2013-05-25 04:42:00,58.0,38.0,-100.00,NNE,25,2.0,9.0,46,-99.99,,,-99.99,,2013-05-25 08:42:00,
2013-05-25 04:52:00,58.0,37.0,-100.00,North,0,3.0,8.0,46,-99.99,,,-99.99,,2013-05-25 08:52:00,
2013-05-25 05:02:00,58.0,37.0,-100.00,North,0,3.0,8.0,46,-99.99,,,-99.99,,2013-05-25 09:02:00,
2013-05-25 05:11:00,58.0,38.0,-100.00,North,10,2.0,8.0,47,-99.99,,,-99.99,,2013-05-25 09:11:00,
2013-05-25 05:21:00,58.0,38.0,-100.00,SSE,155,0.0,8.0,48,-99.99,,,-99.99,,2013-05-25 09:21:00,
2013-05-25 05:33:00,57.0,37.0,-100.00,NE,50,1.0,4.0,48,-99.99,,,-99.99,,2013-05-25 09:33:00,
2013-05-25 05:43:00,56.0,38.0,-100.00,SE,135,1.0,3.0,50,-99.99,,,-99.99,,2013-05-25 09:43:00,
2013-05-25 05:52:00,55.0,37.0,-100.00,East,85,1.0,3.0,51,-99.99,,,-99.99,,2013-05-25 09:52:00,
2013-05-25 06:03:00,54.0,37.0,-100.00,East,80,2.0,4.0,53,-99.99,,,-99.99,,2013-05-25 10:03:00,
2013-05-25 06:12:00,53.0,38.0,-100.00,NNE,15,1.0,4.0,55,-99.99,,,-99.99,,2013-05-25 10:12:00,
2013-05-25 06:23:00,53.0,38.0,-100.00,ENE,75,2.0,4.0,56,-99.99,,,-99.99,,2013-05-25 10:23:00,
2013-05-25 06:33:00,53.0,38.0,-100.00,ENE,70,1.0,6.0,57,-99.99,,,-99.99,,2013-05-25 10:33:00,
2013-05-25 06:42:00,53.0,38.0,-100.00,ENE,70,1.0,6.0,57,-99.99,,,-99.99,,2013-05-25 10:42:00,
2013-05-25 06:52:00,54.0,39.0,-100.00,East,90,2.0,5.0,56,-99.99,,,-99.99,,2013-05-25 10:52:00,
2013-05-25 07:03:00,54.0,39.0,-100.00,East,90,2.0,5.0,56,-99.99,,,-99.99,,2013-05-25 11:03:00,
2013-05-25 07:12:00,54.0,39.0,-100.00,ENE,75,1.0,5.0,57,-99.99,,,-99.99,,2013-05-25 11:12:00,
2013-05-25 07:22:00,54.0,39.0,-100.00,NE,45,1.0,6.0,57,-99.99,,,-99.99,,2013-05-25 11:22:00,
2013-05-25 07:32:00,54.0,39.0,-100.00,ENE,65,1.0,6.0,56,-99.99,,,-99.99,,2013-05-25 11:32:00,
2013-05-25 07:42:00,55.0,40.0,-100.00,ENE,75,1.0,6.0,56,-99.99,,,-99.99,,2013-05-25 11:42:00,
2013-05-25 07:52:00,55.0,40.0,-100.00,SE,125,1.0,6.0,57,-99.99,,,-99.99,,2013-05-25 11:52:00,
2013-05-25 08:01:00,55.0,41.0,-100.00,South,170,1.0,1.0,58,-99.99,,,-99.99,,2013-05-25 12:01:00,
2013-05-25 08:12:00,55.0,41.0,-100.00,SW,235,2.0,6.0,58,-99.99,,,-99.99,,2013-05-25 12:12:00,
2013-05-25 08:22:00,55.0,41.0,-100.00,WNW,290,1.0,5.0,58,-99.99,,,-99.99,,2013-05-25 12:22:00,
2013-05-25 08:32:00,56.0,41.0,-100.00,SW,235,4.0,6.0,58,-99.99,,,-99.99,,2013-05-25 12:32:00,
2013-05-25 08:42:00,56.0,42.0,-100.00,SW,235,4.0,6.0,58,-99.99,,,-99.99,,2013-05-25 12:42:00,
2013-05-25 08:52:00,57.0,42.0,-100.00,SW,230,1.0,5.0,58,-99.99,,,-99.99,,2013-05-25 12:52:00,
2013-05-25 09:02:00,58.0,42.0,-100.00,SW,220,2.0,5.0,56,-99.99,,,-99.99,,2013-05-25 13:02:00,
2013-05-25 09:11:00,58.0,43.0,-100.00,SW,220,2.0,6.0,56,-99.99,,,-99.99,,2013-05-25 13:11:00,
2013-05-25 09:22:00,59.0,43.0,-100.00,SW,215,1.0,6.0,55,-99.99,,,-99.99,,2013-05-25 13:22:00,
2013-05-25 09:32:00,59.0,44.0,-100.00,SE,140,1.0,5.0,56,-99.99,,,-99.99,,2013-05-25 13:32:00,
2013-05-25 09:42:00,60.0,44.0,-100.00,SW,230,2.0,5.0,55,-99.99,,,-99.99,,2013-05-25 13:42:00,
2013-05-25 09:52:00,60.0,44.0,-100.00,SE,130,1.0,4.0,54,-99.99,,,-99.99,,2013-05-25 13:52:00,
2013-05-25 10:02:00,61.0,44.0,-100.00,SSE,165,4.0,5.0,54,-99.99,,,-99.99,,2013-05-25 14:02:00,
2013-05-25 10:11:00,62.0,44.0,-100.00,SW,230,1.0,4.0,51,-99.99,,,-99.99,,2013-05-25 14:11:00,
2013-05-25 10:22:00,63.0,44.0,-100.00,SE,130,1.0,4.0,49,-99.99,,,-99.99,,2013-05-25 14:22:00,
2013-05-25 10:32:00,65.0,44.0,-100.00,WSW,245,1.0,4.0,48,-99.99,,,-99.99,,2013-05-25 14:32:00,
2013-05-25 10:42:00,67.0,47.0,-100.00,SSE,150,0.0,5.0,47,-99.99,,,-99.99,,2013-05-25 14:42:00,
2013-05-25 10:52:00,68.0,46.0,-100.00,SSW,210,3.0,6.0,45,-99.99,,,-99.99,,2013-05-25 14:52:00,
2013-05-25 11:01:00,69.0,45.0,-100.00,WSW,240,4.0,6.0,42,-99.99,,,-99.99,,2013-05-25 15:01:00,
2013-05-25 11:12:00,69.0,45.0,-100.00,South,175,3.0,6.0,42,-99.99,,,-99.99,,2013-05-25 15:12:00,
2013-05-25 11:22:00,70.0,44.0,-100.00,NW,320,4.0,6.0,40,-99.99,,,-99.99,,2013-05-25 15:22:00,
2013-05-25 11:33:00,72.0,46.0,-100.00,WSW,245,1.0,7.0,40,-99.99,,,-99.99,,2013-05-25 15:33:00,
2013-05-25 11:43:00,72.0,46.0,-100.00,WSW,245,1.0,7.0,40,-99.99,,,-99.99,,2013-05-25 15:43:00,
2013-05-25 11:53:00,72.0,45.0,-100.00,WNW,290,5.0,10.0,38,-99.99,,,-99.99,,2013-05-25 15:53:00,
2013-05-25 12:03:00,72.0,45.0,-100.00,WNW,285,4.0,8.0,38,-99.99,,,-99.99,,2013-05-25 16:03:00,
2013-05-25 12:12:00,73.0,43.0,-100.00,WNW,295,6.0,10.0,34,-99.99,,,-99.99,,2013-05-25 16:12:00,
2013-05-25 12:23:00,73.0,45.0,-100.00,WSW,240,3.0,11.0,36,-99.99,,,-99.99,,2013-05-25 16:23:00,
2013-05-25 12:32:00,75.0,45.0,-100.00,West,270,4.0,9.0,35,-99.99,,,-99.99,,2013-05-25 16:32:00,
2013-05-25 12:42:00,75.0,45.0,-100.00,West,270,4.0,9.0,35,-99.99,,,-99.99,,2013-05-25 16:42:00,
2013-05-25 12:52:00,74.0,45.0,-100.00,West,265,5.0,11.0,35,-99.99,,,-99.99,,2013-05-25 16:52:00,
2013-05-25 13:03:00,73.0,44.0,-100.00,SW,230,5.0,8.0,35,-99.99,,,-99.99,,2013-05-25 17:03:00,
2013-05-25 13:11:00,75.0,45.0,-100.00,NW,310,1.0,14.0,35,-99.99,,,-99.99,,2013-05-25 17:11:00,
2013-05-25 13:22:00,75.0,46.0,-100.00,WSW,240,5.0,10.0,35,-99.99,,,-99.99,,2013-05-25 17:22:00,
2013-05-25 13:32:00,75.0,45.0,-100.00,WSW,255,6.0,12.0,34,-99.99,,,-99.99,,2013-05-25 17:32:00,
2013-05-25 13:42:00,75.0,45.0,-100.00,WSW,255,6.0,12.0,34,-99.99,,,-99.99,,2013-05-25 17:42:00,
2013-05-25 13:52:00,75.0,44.0,-100.00,West,270,5.0,11.0,33,-99.99,,,-99.99,,2013-05-25 17:52:00,
2013-05-25 14:02:00,75.0,44.0,-100.00,West,270,5.0,11.0,33,-99.99,,,-99.99,,2013-05-25 18:02:00,
2013-05-25 14:11:00,74.0,43.0,-100.00,West,260,6.0,14.0,34,-99.99,,,-99.99,,2013-05-25 18:11:00,
2013-05-25 14:22:00,75.0,45.0,-100.00,NNW,330,4.0,13.0,35,-99.99,,,-99.99,,2013-05-25 18:22:00,
2013-05-25 14:32:00,76.0,45.0,-100.00,West,260,6.0,11.0,34,-99.99,,,-99.99,,2013-05-25 18:32:00,
2013-05-25 14:42:00,75.0,44.0,-100.00,WSW,250,4.0,14.0,33,-99.99,,,-99.99,,2013-05-25 18:42:00,
2013-05-25 14:52:00,76.0,45.0,-100.00,SW,230,4.0,11.0,33,-99.99,,,-99.99,,2013-05-25 18:52:00,
2013-05-25 15:02:00,75.0,45.0,-100.00,West,260,4.0,14.0,34,-99.99,,,-99.99,,2013-05-25 19:02:00,
2013-05-25 15:11:00,76.0,47.0,-100.00,WNW,300,1.0,13.0,35,-99.99,,,-99.99,,2013-05-25 19:11:00,
2013-05-25 15:22:00,76.0,45.0,-100.00,West,270,4.0,12.0,33,-99.99,,,-99.99,,2013-05-25 19:22:00,
2013-05-25 15:32:00,78.0,46.0,-100.00,WSW,255,4.0,10.0,33,-99.99,,,-99.99,,2013-05-25 19:32:00,
2013-05-25 15:42:00,78.0,46.0,-100.00,WSW,255,4.0,10.0,33,-99.99,,,-99.99,,2013-05-25 19:42:00,
2013-05-25 15:52:00,78.0,46.0,-100.00,West,260,6.0,12.0,33,-99.99,,,-99.99,,2013-05-25 19:52:00,
2013-05-25 16:02:00,78.0,46.0,-100.00,West,260,6.0,12.0,33,-99.99,,,-99.99,,2013-05-25 20:02:00,
2013-05-25 16:11:00,77.0,46.0,-100.00,SW,235,5.0,14.0,33,-99.99,,,-99.99,,2013-05-25 20:11:00,
2013-05-25 16:22:00,78.0,46.0,-100.00,SW,215,6.0,14.0,33,-99.99,,,-99.99,,2013-05-25 20:22:00,
2013-05-25 16:32:00,79.0,47.0,-100.00,West,265,4.0,11.0,33,-99.99,,,-99.99,,2013-05-25 20:32:00,
2013-05-25 16:42:00,79.0,47.0,-100.00,West,265,4.0,11.0,33,-99.99,,,-99.99,,2013-05-25 20:42:00,
2013-05-25 16:52:00,78.0,46.0,-100.00,WSW,240,4.0,12.0,33,-99.99,,,-99.99,,2013-05-25 20:52:00,
2013-05-25 17:02:00,78.0,46.0,-100.00,WSW,240,4.0,12.0,33,-99.99,,,-99.99,,2013-05-25 21:02:00,
2013-05-25 17:11:00,78.0,47.0,-100.00,West,260,4.0,15.0,34,-99.99,,,-99.99,,2013-05-25 21:11:00,
2013-05-25 17:22:00,78.0,49.0,-100.00,WSW,255,3.0,15.0,35,-99.99,,,-99.99,,2013-05-25 21:22:00,
2013-05-25 17:33:00,78.0,48.0,-100.00,SW,215,4.0,12.0,35,-99.99,,,-99.99,,2013-05-25 21:33:00,
2013-05-25 17:43:00,78.0,48.0,-100.00,SW,235,5.0,11.0,35,-99.99,,,-99.99,,2013-05-25 21:43:00,
2013-05-25 17:53:00,79.0,49.0,-100.00,West,265,6.0,17.0,35,-99.99,,,-99.99,,2013-05-25 21:53:00,
2013-05-25 18:03:00,78.0,48.0,-100.00,WSW,245,6.0,11.0,35,-99.99,,,-99.99,,2013-05-25 22:03:00,
2013-05-25 18:13:00,78.0,49.0,-100.00,West,280,4.0,11.0,35,-99.99,,,-99.99,,2013-05-25 22:13:00,
2013-05-25 18:23:00,79.0,49.0,-100.00,WSW,250,4.0,12.0,35,-99.99,,,-99.99,,2013-05-25 22:23:00,
2013-05-25 18:32:00,75.0,47.0,-100.00,SW,230,10.0,13.0,36,-99.99,,,-99.99,,2013-05-25 22:32:00,
2013-05-25 18:42:00,75.0,47.0,-100.00,SW,230,10.0,13.0,36,-99.99,,,-99.99,,2013-05-25 22:42:00,
2013-05-25 18:52:00,75.0,47.0,-100.00,WSW,255,6.0,15.0,37,-99.99,,,-99.99,,2013-05-25 22:52:00,
2013-05-25 19:02:00,75.0,47.0,-100.00,WSW,255,6.0,15.0,37,-99.99,,,-99.99,,2013-05-25 23:02:00,
2013-05-25 19:12:00,75.0,47.0,-100.00,WNW,295,4.0,14.0,37,-99.99,,,-99.99,,2013-05-25 23:12:00,
2013-05-25 19:22:00,75.0,47.0,-100.00,West,265,5.0,11.0,38,-99.99,,,-99.99,,2013-05-25 23:22:00,
2013-05-25 19:32:00,75.0,48.0,-100.00,WSW,255,4.0,10.0,38,-99.99,,,-99.99,,2013-05-25 23:32:00,
2013-05-25 19:42:00,75.0,48.0,-100.00,WSW,255,4.0,10.0,38,-99.99,,,-99.99,,2013-05-25 23:42:00,
2013-05-25 19:52:00,75.0,48.0,-100.00,West,270,4.0,9.0,38,-99.99,,,-99.99,,2013-05-25 23:52:00,
2013-05-25 20:02:00,75.0,48.0,-100.00,West,270,4.0,9.0,38,-99.99,,,-99.99,,2013-05-26 00:02:00,
2013-05-25 20:11:00,75.0,48.0,-100.00,ESE,120,2.0,8.0,38,-99.99,,,-99.99,,2013-05-26 00:11:00,
2013-05-25 20:22:00,75.0,48.0,-100.00,WSW,245,2.0,9.0,38,-99.99,,,-99.99,,2013-05-26 00:22:00,
2013-05-25 20:32:00,74.0,48.0,-100.00,West,275,4.0,6.0,40,-99.99,,,-99.99,,2013-05-26 00:32:00,
2013-05-25 20:42:00,74.0,48.0,-100.00,West,275,4.0,6.0,40,-99.99,,,-99.99,,2013-05-26 00:42:00,
2013-05-25 20:52:00,72.0,47.0,-100.00,WNW,290,1.0,4.0,41,-99.99,,,-99.99,,2013-05-26 00:52:00,
2013-05-25 21:01:00,72.0,48.0,-100.00,WNW,300,1.0,4.0,42,-99.99,,,-99.99,,2013-05-26 01:01:00,
2013-05-25 21:11:00,72.0,47.0,-100.00,WSW,245,1.0,4.0,42,-99.99,,,-99.99,,2013-05-26 01:11:00,
2013-05-25 21:21:00,71.0,48.0,-100.00,SW,235,1.0,2.0,44,-99.99,,,-99.99,,2013-05-26 01:21:00,
2013-05-25 21:32:00,70.0,49.0,-100.00,NW,320,1.0,1.0,46,-99.99,,,-99.99,,2013-05-26 01:32:00,
2013-05-25 21:42:00,70.0,49.0,-100.00,NW,320,1.0,1.0,46,-99.99,,,-99.99,,2013-05-26 01:42:00,
2013-05-25 21:52:00,69.0,49.0,-100.00,WSW,240,1.0,1.0,49,-99.99,,,-99.99,,2013-05-26 01:52:00,
2013-05-25 22:02:00,69.0,49.0,-100.00,WSW,240,1.0,1.0,49,-99.99,,,-99.99,,2013-05-26 02:02:00,
2013-05-25 22:11:00,68.0,49.0,-100.00,WSW,240,0.0,1.0,51,-99.99,,,-99.99,,2013-05-26 02:11:00,
2013-05-25 22:21:00,67.0,50.0,-100.00,WSW,240,0.0,0.0,53,-99.99,,,-99.99,,2013-05-26 02:21:00,
2013-05-25 22:32:00,67.0,51.0,-100.00,ENE,75,1.0,3.0,56,-99.99,,,-99.99,,2013-05-26 02:32:00,
2013-05-25 22:42:00,67.0,51.0,-100.00,ENE,75,1.0,3.0,56,-99.99,,,-99.99,,2013-05-26 02:42:00,
2013-05-25 22:52:00,66.0,50.0,-100.00,East,90,0.0,1.0,56,-99.99,,,-99.99,,2013-05-26 02:52:00,
2013-05-25 23:01:00,66.0,50.0,-100.00,ENE,65,1.0,5.0,58,-99.99,,,-99.99,,2013-05-26 03:01:00,
2013-05-25 23:11:00,65.0,50.0,-100.00,NNE,30,0.0,1.0,59,-99.99,,,-99.99,,2013-05-26 03:11:00,
2013-05-25 23:22:00,65.0,51.0,-100.00,WSW,245,1.0,2.0,61,-99.99,,,-99.99,,2013-05-26 03:22:00,
2013-05-25 23:33:00,65.0,52.0,-100.00,SSW,200,0.0,1.0,64,-99.99,,,-99.99,,2013-05-26 03:33:00,
2013-05-25 23:43:00,64.0,52.0,-100.00,SW,215,0.0,1.0,65,-99.99,,,-99.99,,2013-05-26 03:43:00,
2013-05-25 23:53:00,63.0,53.0,-100.00,SW,215,1.0,2.0,68,-99.99,,,-99.99,,2013-05-26 03:53:00,